Theta_e
311 314 317 318 320 320 319 318 317 317 317 317 317 317 316 319 322 325 328 329 331 331 325 328 332 341 339 330 331 330 327 325 326 325 324 323 323 323 324 325 325 327 332
308 310 311 313 319 319 318 317 316 316 315 316 316 315 315 317 319 322 324 328 330 329 327 324 329 332 326 324 323 321 319 324 329 324 318 313 314 316 318 320 323 325 327
304 307 309 309 310 310 312 316 315 314 314 314 314 314 314 314 315 319 321 324 328 328 326 324 324 325 323 322 321 320 321 321 323 325 319 312 309 312 318 318 320 319 321
303 304 305 306 308 310 312 312 313 313 314 312 311 309 309 308 312 315 319 321 325 328 327 323 322 320 320 320 322 324 321 321 318 319 324 321 318 313 312 316 317 318 323
303 304 305 307 308 310 308 308 307 308 311 310 311 309 307 309 312 313 314 318 321 325 325 326 323 320 317 317 318 317 316 318 319 321 321 320 318 315 317 313 312 315 317
303 305 307 307 305 307 308 308 306 306 308 309 311 310 308 307 309 311 314 316 317 318 319 322 321 322 322 322 321 322 321 322 323 324 323 322 321 320 319 317 314 313 313
301 303 303 303 303 303 305 309 307 306 308 307 309 311 310 308 308 310 314 314 313 313 314 315 318 317 318 316 316 316 317 317 317 319 317 318 318 320 322 317 313 311 312
300 303 303 302 302 304 305 306 306 306 306 306 306 308 309 308 309 310 312 313 310 310 313 313 312 315 315 315 314 315 314 314 313 314 312 313 317 317 317 316 314 311 308
299 300 302 302 303 304 304 305 304 304 304 304 304 304 305 306 307 309 310 309 308 310 310 310 310 310 310 311 311 310 310 310 309 307 308 308 311 312 313 313 313 311 308
300 300 301 302 304 304 304 304 303 302 303 302 302 304 304 304 305 307 311 307 306 305 306 307 310 311 310 310 309 307 307 306 305 306 304 305 307 308 309 310 310 311 311
299 300 300 302 303 303 301 301 301 302 301 301 302 302 303 303 303 304 309 305 304 304 304 307 308 309 308 307 306 306 305 304 302 301 301 301 302 303 306 307 307 308 310
297 298 299 300 300 299 300 300 301 301 301 301 302 303 304 304 303 302 309 308 306 305 304 307 308 307 307 306 305 304 304 302 299 299 299 299 303 301 303 305 304 304 306
297 298 298 298 298 299 299 301 302 301 302 301 302 302 303 304 304 309 307 306 305 305 305 305 305 305 305 304 304 303 302 301 301 300 300 301 301 301 302 301 304 304 305
298 297 297 297 297 299 299 300 302 303 303 303 302 303 304 306 307 305 304 304 304 304 303 302 302 302 303 303 301 300 300 299 298 299 303 303 303 303 303 299 300 303 303
298 297 296 296 297 298 299 301 302 302 304 302 302 303 307 306 305 303 303 302 302 302 301 301 300 300 301 302 301 300 300 299 297 298 299 303 307 307 308 302 303 303 304
298 298 297 297 297 298 298 299 300 301 303 302 303 306 305 303 302 301 300 300 300 300 300 300 300 299 301 301 303 302 300 300 298 299 302 304 305 307 306 306 306 305 303
297 297 297 296 297 296 297 298 300 302 303 303 304 304 302 300 300 300 299 298 298 299 299 299 299 298 299 299 299 303 301 300 301 300 301 302 303 304 302 302 302 302 303
296 295 295 295 295 295 299 300 301 302 303 304 303 301 300 299 299 298 298 298 299 298 298 297 297 297 297 298 299 301 300 301 300 300 301 302 301 302 301 300 299 298 298
295 295 295 295 295 297 299 299 301 302 303 301 299 299 299 298 298 297 297 298 297 297 297 297 295 293 294 297 298 301 300 299 300 300 300 301 300 299 299 299 297 296 297
295 294 295 295 296 298 298 299 300 301 299 299 298 299 298 297 297 297 297 298 296 297 299 299 298 299 298 297 297 299 300 299 299 299 300 300 299 297 299 300 300 296 296
294 294 295 294 296 298 298 298 300 298 299 299 299 299 298 298 298 298 298 299 299 299 299 299 300 299 299 297 296 298 300 299 300 300 299 299 296 295 298 299 300 297 295
293 294 293 295 297 298 298 297 297 299 299 299 298 298 298 299 299 299 300 300 299 299 299 298 298 299 299 299 298 297 298 302 301 299 298 296 294 294 295 297 294 295 296
292 294 294 296 297 298 299 298 298 299 299 298 297 297 296 296 297 297 296 295 295 296 294 294 295 294 297 298 298 297 298 300 301 300 298 296 295 295 296 295 295 296 297
293 293 295 295 296 299 299 298 299 299 298 297 296 295 294 292 292 292 294 292 293 291 292 294 294 294 294 293 295 301 302 301 302 302 300 298 297 296 296 295 297 298 297
292 294 295 296 297 298 298 299 299 299 297 297 296 295 294 293 293 292 290 290 290 291 292 293 294 296 293 293 293 296 299 300 299 299 296 296 294 293 296 296 296 296 296
294 295 296 297 298 298 298 299 299 297 292 291 291 291 289 289 289 289 290 293 292 292 291 291 294 295 293 293 293 293 294 294 295 295 295 296 296 295 295 294 294 295 295
Wind_Speed
7 9 9 7 6 4 5 3 6 7 5 3 4 4 4 4 6 8 13 13 14 11 10 8 8 7 7 6 6 4 5 2 2 2 3 3 4 6 4 3 4 6 5
10 8 8 6 4 3 6 7 6 5 4 2 2 1 3 4 3 6 10 12 13 15 10 10 8 4 2 5 4 6 2 2 1 3 1 3 5 4 4 3 4 6 4
7 6 7 7 7 7 6 4 5 5 3 4 2 3 3 3 4 8 8 10 13 13 13 12 8 6 2 2 4 4 7 3 3 4 4 1 4 3 3 4 3 5 4
4 4 4 4 4 4 6 6 7 7 6 7 4 4 2 2 3 4 6 7 10 12 15 10 10 6 5 4 3 4 4 3 3 2 2 2 4 4 5 3 3 2 3
3 3 4 4 4 5 5 5 6 6 5 6 5 3 4 3 4 4 7 8 9 9 11 14 10 8 4 4 3 3 1 1 0 1 2 2 1 3 4 7 3 3 2
1 1 3 5 3 5 6 6 7 6 7 6 5 4 5 6 5 6 6 8 5 6 8 10 9 9 6 5 2 2 2 2 1 4 2 3 2 3 3 4 5 5 2
4 5 7 7 7 7 7 7 7 7 7 7 6 5 6 6 6 6 7 9 6 5 7 7 7 6 7 8 6 3 5 4 3 1 2 1 2 4 4 3 5 4 1
5 6 7 7 7 9 9 9 8 8 8 7 7 6 6 4 5 5 4 4 3 4 6 7 5 6 5 5 5 2 4 3 4 1 2 3 2 2 2 3 4 5 3
4 5 7 6 7 8 8 6 7 7 7 6 6 7 6 7 6 7 6 4 4 4 5 8 6 6 6 6 6 4 5 5 4 2 3 2 2 2 2 3 3 4 4
6 7 6 7 6 6 5 6 6 7 7 7 6 6 8 7 7 7 8 6 5 4 5 7 6 6 5 6 5 4 5 4 2 3 4 4 3 4 3 3 3 3 4
6 6 6 6 6 6 7 7 7 7 7 7 7 7 9 8 7 6 6 4 4 4 5 6 6 5 5 5 4 4 5 6 6 6 5 5 5 3 2 2 2 2 2
4 6 6 7 8 8 8 7 7 7 7 7 8 10 11 8 7 6 2 3 3 3 5 5 5 5 4 5 5 5 6 6 6 5 5 5 3 4 4 3 3 2 2
4 6 7 7 8 8 8 8 10 8 7 7 10 11 11 10 7 4 2 1 2 3 4 4 5 5 5 5 5 4 4 5 5 6 5 5 5 5 3 3 3 3 2
6 7 7 8 8 10 9 10 12 11 7 9 10 11 11 10 4 4 4 2 3 4 5 6 6 6 6 6 6 5 4 5 5 4 4 4 4 5 5 4 4 3 3
8 8 7 7 9 10 9 11 10 12 9 10 10 11 11 6 6 5 4 5 5 6 5 5 6 6 6 4 4 3 3 4 5 4 5 5 8 6 6 3 4 3 4
9 7 7 11 12 9 12 13 12 12 8 9 9 6 6 6 6 6 6 6 6 6 5 6 5 6 4 8 10 7 4 3 2 4 5 6 10 10 17 17 18 10 5
7 8 11 11 9 8 10 11 12 12 9 8 9 6 6 7 6 6 5 7 6 5 5 5 4 4 5 11 8 11 4 4 4 4 4 5 6 9 8 14 17 19 20
6 8 9 9 7 7 10 12 12 10 8 7 8 7 6 6 5 5 6 6 4 4 3 4 5 5 5 11 6 6 4 3 4 4 4 4 5 6 8 10 11 11 11
6 6 7 7 8 9 11 11 9 8 6 7 7 6 6 5 6 7 6 4 4 3 4 3 5 6 5 8 6 5 4 4 5 4 5 4 5 6 7 8 9 8 7
6 7 7 6 8 8 8 9 9 6 7 7 7 6 6 6 6 5 5 3 2 3 4 5 5 7 5 9 8 5 3 6 5 6 6 13 5 8 7 5 6 8 6
7 7 6 8 7 7 7 8 6 7 7 6 7 6 5 4 4 5 4 4 5 5 5 5 5 5 6 7 10 8 5 4 5 5 4 4 8 7 6 7 6 7 4
6 6 7 8 7 6 5 6 5 6 6 6 5 4 5 4 4 4 4 4 4 4 5 5 5 5 6 10 11 10 10 7 7 5 5 6 13 14 12 7 10 10 6
6 5 7 8 6 6 4 3 6 4 5 6 5 4 4 5 5 5 5 4 5 5 4 4 4 4 5 6 10 10 10 11 9 6 9 12 12 11 11 12 10 7 5
5 7 7 6 6 6 8 7 5 4 4 4 5 5 5 5 5 4 4 5 4 4 3 3 4 4 5 5 4 4 5 8 7 8 8 8 9 11 7 6 7 5 5
7 7 6 4 4 6 7 6 4 3 4 5 5 5 5 6 5 4 4 5 3 2 3 3 3 5 5 4 4 6 5 4 5 6 5 6 5 5 6 6 6 6 6
7 6 4 3 7 6 7 6 6 6 6 6 5 4 4 5 5 5 5 7 5 9 4 5 3 4 5 8 11 12 12 12 9 5 5 5 5 5 5 5 6 6 7
Wind_Direction
79 69 74 92 95 83 99 99 55 9 5 329 355 357 332 319 334 333 332 335 328 325 316 314 280 258 226 209 177 149 227 272 354 30 304 283 258 274 273 280 282 289 283
59 43 36 47 67 94 42 35 34 6 6 357 342 294 293 306 307 330 328 334 329 328 327 325 319 296 153 171 137 134 157 232 144 141 95 328 329 338 294 279 283 280 303
68 41 38 29 27 20 6 11 346 345 6 359 350 339 324 323 335 347 332 333 330 336 333 331 338 348 307 263 154 154 158 176 255 98 161 17 258 342 300 279 292 328 1
53 49 47 39 21 5 1 355 347 344 353 355 19 19 300 300 278 297 310 326 333 344 345 341 342 353 355 31 81 99 116 102 216 346 149 214 187 243 307 315 320 9 39
77 53 28 11 331 348 332 327 348 351 339 349 340 354 336 287 295 301 324 336 340 347 347 343 333 345 360 358 8 66 99 130 244 257 351 360 262 257 245 292 299 321 208
141 292 290 293 298 333 356 349 353 345 340 342 335 322 331 327 328 320 343 335 333 331 345 340 339 342 351 7 354 268 207 243 125 111 245 238 287 252 264 267 295 270 221
27 6 355 356 346 338 340 340 348 334 334 8 359 342 324 315 305 309 325 326 328 329 330 327 337 351 347 338 329 310 131 121 100 58 269 257 292 282 293 300 281 271 279
337 318 318 349 345 347 343 342 349 347 346 359 351 335 310 278 278 277 281 285 283 303 304 308 323 335 346 330 307 332 351 37 88 227 266 264 244 271 245 273 285 289 274
291 335 339 341 335 329 328 332 332 323 330 326 323 317 306 301 288 287 276 276 287 292 314 307 321 334 346 359 349 344 4 11 37 19 321 314 282 322 296 280 275 261 275
323 309 320 331 317 312 310 295 297 288 289 301 298 301 287 286 286 280 283 268 278 299 315 307 319 340 353 2 357 1 342 32 23 33 359 353 352 322 309 293 281 303 283
291 319 342 337 313 292 286 282 293 296 297 309 302 291 292 285 281 283 280 271 289 312 315 309 324 343 354 359 360 13 20 30 10 9 5 1 347 302 294 294 285 263 283
18 7 342 309 296 287 291 290 289 280 288 290 291 293 294 284 289 295 299 303 316 313 308 316 322 8 4 12 24 29 26 27 23 11 360 356 316 336 347 341 333 318 305
355 312 302 296 294 296 296 294 303 280 279 286 298 303 300 297 292 295 31 18 1 334 350 5 10 17 14 13 23 30 27 39 23 359 353 336 342 3 14 353 348 341 336
276 275 297 301 301 295 294 304 307 295 286 299 305 310 307 308 344 36 33 31 36 31 31 19 20 14 18 14 18 22 26 29 30 352 333 337 5 12 9 2 3 16 31
308 296 298 294 294 301 306 308 305 307 294 308 313 318 329 34 35 39 21 24 33 47 36 31 22 13 19 2 25 17 21 35 21 350 341 333 24 27 48 38 31 43 47
282 293 294 307 312 315 320 316 313 313 294 313 314 334 6 25 25 27 34 29 31 32 31 25 1 12 8 2 15 9 11 61 37 358 1 350 20 68 74 66 62 60 72
293 308 312 307 305 308 316 311 316 312 305 305 322 23 31 33 37 38 33 43 31 20 19 10 355 4 355 357 359 14 354 343 3 10 18 29 38 58 71 66 61 55 54
295 301 299 301 291 292 319 320 316 313 316 341 35 38 40 47 38 43 38 35 17 6 349 351 355 1 357 1 1 27 13 355 27 22 21 65 51 49 83 72 66 57 47
291 286 291 290 300 309 320 312 319 328 10 37 38 41 46 39 36 31 9 1 3 7 4 352 8 16 354 354 3 356 19 24 34 31 33 45 87 72 67 83 76 68 64
298 296 298 297 300 315 317 326 333 24 35 44 52 39 35 36 26 1 349 327 326 352 10 17 20 34 14 9 20 23 354 40 28 37 40 40 87 84 50 62 68 70 38
299 303 306 295 304 314 323 326 348 30 46 52 53 45 23 3 346 333 341 0 20 27 27 33 22 14 6 9 26 31 29 26 48 44 33 34 45 70 100 68 83 87 82
308 304 301 305 314 312 312 325 43 46 51 56 50 17 343 338 352 356 16 47 42 46 21 29 33 18 6 24 32 56 57 32 63 41 48 66 62 58 60 69 94 94 87
291 298 304 309 315 316 312 32 63 61 47 45 10 349 0 8 11 38 32 30 34 37 28 45 24 0 12 15 20 31 48 54 76 71 64 57 58 55 61 60 58 49 66
313 309 313 315 331 32 66 80 79 55 61 25 7 11 25 21 25 43 29 41 26 35 58 58 18 29 23 14 7 23 35 49 58 57 58 65 66 58 54 46 48 54 60
310 304 303 319 38 66 77 78 60 58 37 22 18 19 27 29 25 30 10 14 32 7 348 11 45 58 37 346 353 51 49 57 70 76 55 53 45 37 52 53 54 56 57
307 320 326 48 75 79 87 59 35 38 35 34 23 15 26 15 24 19 7 6 16 358 51 91 78 56 71 53 48 52 50 48 47 56 48 42 43 54 54 55 59 56 62